Theta_e
311 311 311 311 310 310 310 308 306 304 303 302 302 303 303 304 306 310 311 312 314 315 351 352 350 348 352 352 347 342 345 348 352 353 352 352 354 351 348 350 348 347 347 345 348
310 310 310 310 310 309 309 309 308 305 304 303 303 303 303 306 313 315 315 313 313 318 354 352 351 350 354 355 351 346 345 347 342 343 350 354 353 352 352 350 353 349 347 347 348
310 310 309 310 310 309 307 306 305 305 303 304 305 304 304 311 315 310 317 321 312 317 343 349 350 352 356 350 352 347 353 345 344 347 347 353 354 351 352 352 352 351 349 348 348
308 306 306 307 308 308 306 303 303 303 304 306 306 306 310 314 312 319 319 323 313 329 346 349 350 355 352 353 351 351 347 347 346 342 350 353 351 353 348 348 347 347 347 349 347
306 304 305 305 305 307 306 305 304 304 305 307 309 310 315 316 310 318 317 323 331 341 344 345 352 350 333 337 348 352 346 344 344 343 342 349 353 353 352 348 347 346 348 349 348
305 305 304 304 305 305 305 306 305 304 305 307 312 313 312 304 311 312 316 318 342 336 336 328 334 334 325 326 337 333 342 341 338 332 339 347 352 351 352 348 347 348 349 348 348
306 306 305 305 305 304 304 304 305 306 307 310 313 313 317 305 312 312 320 318 326 331 322 324 322 328 321 322 320 323 325 326 327 327 333 344 353 354 350 350 349 348 348 348 347
305 305 305 304 304 304 304 306 308 310 314 316 315 316 309 309 310 311 320 324 320 326 323 325 323 319 320 321 321 323 324 326 326 328 328 347 351 352 349 351 352 350 349 348 347
305 305 304 304 304 303 306 307 315 316 313 315 315 315 311 315 318 312 313 315 325 324 323 322 321 320 320 321 320 320 325 324 326 327 338 344 341 347 349 352 353 352 350 349 348
304 303 303 303 303 303 307 314 322 321 318 319 319 317 315 317 321 321 314 313 318 319 322 322 318 319 316 318 319 322 322 323 325 329 337 339 339 346 350 353 354 353 351 351 349
303 303 303 302 303 304 306 310 306 308 309 322 321 318 318 319 321 317 315 315 317 318 319 320 322 323 320 318 320 322 323 325 324 326 338 338 339 352 351 352 354 353 353 352 351
302 302 302 302 302 306 307 306 305 305 307 308 308 311 317 316 317 318 316 315 317 319 318 318 323 322 321 319 321 321 322 322 322 323 334 334 337 350 352 353 352 354 353 353 351
302 302 301 302 302 303 305 305 304 306 305 308 308 310 310 312 314 316 314 315 317 317 319 322 320 322 323 321 322 320 322 322 324 323 330 336 337 342 352 350 350 352 351 351 351
303 302 302 301 302 303 303 304 304 306 306 311 309 310 313 311 313 316 316 318 318 320 315 318 319 323 322 323 320 319 319 322 322 321 323 332 334 339 344 353 350 348 351 352 351
303 303 302 302 303 303 303 304 304 303 319 319 311 311 311 313 315 315 319 319 318 318 317 319 317 320 322 323 320 324 320 320 320 320 321 325 331 333 338 354 353 350 348 347 347
302 302 302 303 303 303 304 304 304 312 318 318 313 312 312 312 313 316 318 320 317 319 318 318 317 319 318 319 320 321 321 317 317 317 322 321 327 323 343 344 351 351 350 349 347
302 302 303 303 304 304 305 303 308 312 313 317 314 314 314 314 313 316 318 321 320 319 319 319 319 319 317 319 319 320 318 321 321 321 324 319 323 326 329 340 344 347 347 347 347
302 302 302 304 303 305 305 304 310 312 312 313 314 313 315 314 315 315 317 321 320 319 319 320 320 320 318 318 319 318 317 319 322 321 323 318 323 323 323 333 338 340 342 341 344
302 302 303 305 303 304 302 306 308 310 313 313 313 314 314 314 315 315 314 320 322 317 321 318 320 321 319 319 320 317 320 316 316 316 316 318 319 322 324 325 334 337 337 338 337
303 301 302 303 303 304 305 308 308 310 310 311 313 312 313 312 314 312 314 316 318 318 315 318 322 319 320 319 319 317 315 320 311 321 320 318 318 324 326 327 327 334 336 337 337
302 298 302 303 303 302 304 306 308 309 310 310 311 312 311 313 313 312 313 317 316 318 317 314 315 318 319 321 322 318 317 314 316 314 319 318 320 316 322 325 326 328 335 336 335
298 299 302 303 300 298 303 304 307 309 307 309 310 312 313 314 314 313 317 317 315 316 321 320 310 318 318 318 321 322 321 314 318 317 312 315 320 318 318 323 325 326 328 334 335
297 297 303 302 302 301 303 305 306 309 308 308 309 312 312 313 313 316 316 316 314 316 321 318 315 315 316 317 317 319 320 316 318 314 319 319 321 320 318 320 321 322 323 327 334
298 300 297 299 298 303 303 303 307 308 310 308 308 310 311 312 312 314 316 315 312 316 318 314 313 315 319 319 318 317 318 319 320 321 322 320 319 319 319 319 319 322 325 329 332
298 301 302 300 301 304 302 302 307 307 306 308 311 308 308 311 311 312 312 311 311 313 310 311 316 316 317 317 318 319 319 319 318 321 322 323 322 320 318 318 319 320 324 324 329
300 304 303 303 303 304 302 302 304 304 305 307 311 308 306 308 309 309 308 310 310 310 309 308 315 315 317 318 318 319 319 320 320 318 318 321 320 316 318 317 318 319 319 320 322
303 303 302 304 303 304 303 303 303 303 304 308 307 307 306 308 306 305 304 305 307 309 309 309 313 315 318 317 318 319 318 319 319 318 319 319 320 318 317 317 318 319 318 319 319
Wind_Speed
25 25 25 26 26 24 24 23 23 22 22 21 21 21 20 19 21 13 9 21 15 17 24 24 19 20 14 3 2 2 3 3 4 2 3 8 5 5 6 10 3 4 6 13 30
26 26 26 26 27 27 26 24 24 23 23 21 21 21 18 16 17 14 35 22 20 22 30 24 12 18 3 6 3 3 3 6 5 4 6 8 9 9 5 9 1 4 13 28 29
27 28 28 27 27 28 28 27 27 25 24 23 21 18 14 11 5 8 4 6 25 29 33 23 17 10 8 4 5 5 6 5 4 3 7 7 4 5 8 8 7 15 21 23 26
30 31 30 30 30 30 30 32 30 29 26 24 20 15 8 2 6 2 7 9 33 36 28 20 11 7 6 7 6 4 11 7 6 3 5 9 9 4 12 4 9 16 28 22 21
33 34 34 34 35 34 35 35 35 30 27 22 18 11 2 3 12 9 9 10 34 33 25 13 17 6 7 6 6 6 6 7 11 4 6 7 13 9 13 2 13 19 22 23 19
36 37 37 38 40 40 39 40 37 33 28 24 14 5 3 7 8 8 9 19 29 28 20 12 11 6 2 4 7 6 9 14 10 10 6 11 14 9 10 9 15 20 20 20 19
35 37 39 41 44 42 45 42 37 31 26 20 13 11 3 15 4 9 14 21 35 32 8 16 10 13 7 3 8 7 9 7 8 6 8 8 5 21 6 17 17 18 17 17 17
36 38 40 43 47 48 45 36 30 17 8 7 15 11 8 8 15 23 13 17 30 31 17 28 16 3 2 2 7 4 2 2 4 5 6 14 21 21 14 19 18 18 17 17 17
39 41 43 46 49 51 32 30 6 10 8 20 13 5 9 3 7 18 27 12 24 27 20 1 6 5 2 2 4 3 4 5 6 7 2 12 7 15 17 18 18 18 18 17 15
40 42 45 47 49 46 32 9 9 10 11 3 5 1 6 5 5 8 21 23 6 8 4 6 3 5 2 5 11 6 4 3 5 1 5 7 6 8 17 19 20 19 17 17 17
41 43 45 49 50 32 35 3 4 3 3 8 4 4 4 4 4 6 11 13 7 5 8 6 4 14 11 7 5 5 5 4 3 3 6 10 3 6 16 15 17 18 17 18 20
40 43 46 50 45 17 15 6 7 3 11 15 21 17 23 4 4 4 22 9 8 7 8 4 20 11 9 8 9 6 5 7 4 7 2 3 9 9 15 22 22 20 18 20 18
42 43 46 50 27 17 13 7 13 13 4 9 8 7 6 13 11 8 15 7 7 9 17 19 7 12 13 7 11 6 12 6 4 3 1 4 6 5 12 4 13 16 18 17 18
41 43 46 52 7 27 11 10 28 4 3 7 5 6 5 8 6 11 19 7 5 21 9 7 8 19 8 13 10 9 8 5 7 4 4 4 5 5 8 20 16 15 18 18 19
40 41 44 33 16 9 10 25 28 4 6 1 2 8 6 7 0 8 10 2 10 9 9 11 12 14 16 11 8 8 9 9 6 5 3 4 1 6 7 11 17 18 19 20 21
41 43 47 23 16 15 26 30 2 3 9 3 3 1 4 4 3 4 7 2 6 5 1 8 5 13 11 7 10 7 4 5 5 4 6 9 8 5 7 14 17 18 18 20 20
41 44 36 16 10 25 23 6 3 5 7 5 4 5 4 3 3 5 11 15 11 8 11 6 13 3 6 7 5 6 8 2 2 4 9 8 7 14 9 14 20 24 22 22 22
41 41 27 9 25 22 8 4 5 2 3 4 5 8 2 7 3 5 10 17 6 5 7 11 7 17 6 10 10 8 10 6 8 5 5 7 9 6 13 11 17 19 25 23 21
39 33 13 10 29 14 4 1 5 2 6 8 7 4 5 5 2 3 3 10 9 5 7 8 10 4 10 5 17 6 10 9 4 1 2 5 7 6 6 9 12 18 17 16 20
31 12 13 14 26 1 4 4 5 6 11 5 3 5 6 7 6 6 5 7 10 7 5 4 1 6 18 6 9 11 9 4 1 6 6 5 4 6 8 14 14 10 15 18 18
11 4 8 32 6 4 2 5 7 13 11 6 5 5 4 5 4 5 5 6 11 9 8 6 3 3 9 11 19 4 6 3 6 6 6 0 7 8 10 13 15 17 17 18 16
4 4 17 22 5 2 4 9 9 12 7 5 5 3 2 4 4 5 4 4 10 7 4 2 2 7 6 2 7 22 12 8 6 10 5 4 9 4 10 9 12 12 11 11 14
3 2 9 10 4 4 6 7 5 11 9 7 5 4 4 4 3 5 5 3 12 9 4 5 2 2 5 6 2 5 10 8 14 2 16 8 8 14 3 8 10 10 9 8 10
3 4 4 4 1 3 5 5 8 8 4 9 6 6 5 5 4 3 6 6 8 6 8 2 2 3 4 1 4 6 5 9 15 13 15 18 11 4 6 8 8 10 10 10 9
2 2 1 4 3 6 2 4 8 6 6 5 4 10 6 3 5 4 6 4 5 7 5 4 0 2 2 11 6 11 14 12 12 21 15 17 21 11 8 10 13 15 8 7 10
1 2 1 4 7 8 4 3 5 7 3 4 4 12 13 3 2 3 6 3 3 6 5 4 1 1 3 9 12 11 13 15 14 11 8 20 14 8 14 11 9 11 9 10 11
3 4 2 2 2 3 2 3 6 10 9 3 6 10 10 3 4 7 8 7 8 1 3 3 3 2 4 4 10 13 9 14 8 8 11 16 10 8 9 11 14 16 13 13 13
Wind_Direction
354 351 348 345 342 340 337 336 335 334 332 328 329 326 321 312 304 294 239 244 232 224 161 147 148 153 153 125 115 75 52 291 259 177 270 142 121 146 102 140 192 150 141 145 154
354 350 347 344 341 338 335 331 330 329 328 326 326 326 324 323 314 262 273 261 221 189 154 160 166 157 173 164 181 155 152 233 209 194 200 183 138 156 125 156 202 90 108 139 151
351 348 346 343 340 336 333 331 329 326 326 322 322 324 326 330 299 246 331 251 195 191 173 156 154 154 191 131 193 180 212 220 260 107 150 136 140 163 143 198 198 165 147 153 160
352 351 349 345 341 338 336 334 329 326 321 316 315 317 326 308 268 222 314 218 179 179 156 157 164 180 178 192 191 219 226 247 248 111 119 161 149 212 183 225 180 165 155 159 167
352 352 350 348 344 339 336 332 330 322 316 306 303 307 313 233 247 258 308 131 169 168 164 167 170 180 169 194 177 245 265 241 254 215 209 166 185 186 211 275 132 149 160 165 170
351 350 349 347 344 341 337 330 323 314 306 297 281 251 198 239 266 247 218 155 171 178 171 162 181 187 187 204 184 207 240 260 266 254 224 179 201 172 210 136 146 159 170 173 176
349 349 348 346 343 342 334 328 319 308 297 278 236 188 218 233 177 120 178 172 178 181 160 191 167 175 171 265 237 249 282 291 240 198 229 170 199 214 158 147 161 172 176 179 188
351 350 348 346 343 341 334 332 320 309 281 225 177 169 239 258 236 234 175 171 183 190 190 198 203 145 189 287 0 334 146 246 280 139 231 154 227 218 162 156 172 177 179 188 195
351 349 347 345 343 342 337 338 25 40 89 130 138 196 258 255 228 228 207 162 174 196 218 167 142 202 141 153 354 333 239 223 315 205 142 179 250 196 166 167 175 183 188 188 194
349 348 346 344 343 342 338 8 88 79 103 76 98 314 249 221 196 186 194 186 154 132 101 183 121 168 126 155 209 207 212 236 252 249 163 199 263 184 171 174 179 185 192 191 196
349 349 347 344 343 343 341 39 4 9 315 216 189 272 285 266 259 180 158 155 118 124 157 180 175 214 196 181 188 195 211 196 270 283 142 220 255 201 174 186 183 190 194 197 204
349 349 348 342 344 7 16 71 92 296 296 246 247 252 256 358 342 209 148 147 159 171 133 118 222 205 178 194 194 207 245 252 289 273 120 216 242 195 185 199 190 185 197 204 207
348 349 349 343 345 360 358 99 338 348 240 280 210 224 219 164 218 235 166 156 150 154 185 201 222 172 196 178 197 209 217 197 208 336 299 91 307 179 209 201 206 203 201 205 209
344 346 347 344 0 337 311 321 337 328 311 268 235 255 139 136 229 207 187 152 162 192 131 209 225 192 179 210 179 214 187 153 167 124 216 147 269 258 201 208 204 200 200 205 213
340 341 343 345 308 304 310 320 332 144 317 195 190 163 165 194 249 202 164 170 172 165 150 207 180 182 206 206 163 220 154 182 168 190 173 219 276 254 155 208 216 214 207 205 208
337 337 341 340 311 317 322 317 298 54 248 343 75 85 129 240 289 83 171 205 141 128 332 192 192 187 197 170 176 160 98 61 52 111 242 212 177 238 186 209 216 227 218 211 211
335 335 340 338 313 325 323 333 80 199 331 5 341 10 342 302 232 140 192 191 169 149 196 188 216 189 153 167 171 141 103 289 298 197 239 174 195 230 209 203 204 214 219 215 212
334 335 344 6 360 344 349 65 219 245 332 340 337 307 140 347 9 331 163 193 215 127 161 179 219 205 186 191 185 184 160 162 203 219 228 118 235 241 202 208 220 222 218 212 213
334 337 344 345 350 336 46 195 218 343 341 332 315 45 348 350 356 347 7 207 198 182 163 173 236 227 182 160 172 193 194 176 80 271 25 219 309 307 188 212 212 225 226 218 213
334 328 303 338 338 6 66 277 291 359 351 344 8 34 11 334 24 25 26 335 340 13 353 222 209 206 203 126 192 162 160 141 33 196 244 275 248 223 202 202 201 216 218 225 217
341 358 346 341 14 43 87 287 301 347 337 335 343 339 19 1 344 355 356 47 1 340 9 9 124 310 127 200 195 154 179 111 148 167 203 24 252 210 210 219 214 210 209 218 214
21 345 339 354 49 29 339 315 287 343 351 324 335 22 19 2 346 359 48 38 356 322 21 358 94 218 200 201 226 214 199 156 162 222 248 181 245 210 231 203 199 218 217 218 216
352 275 344 9 58 343 316 299 329 344 336 338 333 19 351 17 8 23 17 72 11 12 36 332 358 80 48 303 164 192 214 184 216 114 219 200 243 245 206 173 229 241 251 241 235
25 349 325 31 59 9 333 304 337 352 336 339 313 40 6 12 9 357 2 12 334 14 13 52 90 103 217 299 355 306 275 204 207 225 232 231 260 275 289 248 246 243 236 226 223
31 305 44 317 335 327 302 273 318 350 347 15 342 15 356 351 348 23 3 346 325 9 14 74 84 348 245 285 252 247 255 264 234 225 221 240 240 238 240 234 231 234 234 243 246
322 303 338 274 282 304 317 307 327 340 292 329 342 340 333 292 51 337 8 333 276 339 22 353 265 121 278 267 296 281 264 256 249 240 258 263 254 212 214 216 232 246 237 233 242
262 266 173 267 285 286 260 283 310 322 289 188 320 321 322 51 294 248 219 243 242 295 329 312 161 71 262 305 320 297 254 234 231 201 211 242 230 212 238 219 220 235 239 235 237